Location: Doughton Park
(36.4224°N, 81.1835°W)
Time: 06:19:54
(UTC-04:00)

Amateur Radio Satellites - All Passes

Search period start: 28 May 2017 05:49
Search period end: 29 May 2017 05:49
Location: Doughton Park, 36.4224°N, 81.1835°W

Satellite Date Start Highest point End Downlink Frequencies (MHz)
Time Altitude Azimuth
KKS-1 28 May 05:51:13 05:55:25 43° 261° (W) 05:59:38 437.445
O/OREOS (USA 219) 28 May 05:53:03 05:54:56 12° 304° (NW) 05:56:48 437.305
PCSat 28 May 05:57:57 06:02:48 34° 251° (WSW) 06:07:39 145.827
CUBESAT XI-V 28 May 06:00:13 06:04:25 32° 263° (W) 06:08:38 437.345
STARS 28 May 06:17:23 06:21:38 53° 260° (W) 06:25:54 437.465
SO-50 28 May 06:27:16 06:29:31 13° 45° (NE) 06:31:43 436.795
XW-2B 28 May 06:28:08 06:29:05 11° 92° (E) 06:30:02 145.730 - 145.750
JUGNU 28 May 06:38:16 06:40:52 13° 189° (S) 06:43:28 437.505
XW-2F 28 May 06:38:24 06:40:34 15° 93° (E) 06:42:43 145.980 - 146.000
DOVE 4 28 May 06:38:31 06:42:18 32° 98° (E) 06:46:13 437.250
BEESAT 2 28 May 06:40:26 06:44:17 50° 303° (WNW) 06:48:12 435.950
XW-2C 28 May 06:40:28 06:42:57 16° 94° (E) 06:45:26 145.795 - 145.815
KAITUO 1B 28 May 06:43:22 06:45:16 13° 93° (E) 06:47:09 145.475/437.950
BEESAT 3 28 May 06:59:02 07:01:06 14° 313° (NW) 07:03:11 437.485
AO-7 28 May 06:59:17 07:05:18 23° 304° (NW) 07:11:20 .
CUTE-I 28 May 07:15:34 07:20:35 40° 99° (E) 07:25:35 437.470
LilacSat-2 28 May 07:19:26 07:23:16 57° 101° (E) 07:27:02 437.200
SRMSAT 28 May 07:20:15 07:23:40 16° 178° (S) 07:27:04 437.500
XW-2D 28 May 07:51:43 07:55:29 52° 285° (WNW) 07:59:12 145.860 - 145.880
CUTE 1.7 + AOD 2 28 May 07:54:12 07:57:04 17° 93° (E) 07:59:54 437.475
NO-84 28 May 07:54:38 07:58:38 35° 127° (SE) 08:02:37 435.350 FM
M-CUBED/EXP-1 PRIME 28 May 07:55:41 07:58:05 15° 64° (ENE) 08:00:24 437.505
XW-2B 28 May 07:59:48 08:03:28 42° 286° (WNW) 08:07:05 145.730 - 145.750
STRAND 1 28 May 08:02:42 08:07:47 84° 76° (ENE) 08:12:55 437.568
NUDT-PHONESAT 28 May 08:04:45 08:08:23 47° 285° (WNW) 08:11:59 437.300
RS-15 28 May 08:05:44 08:12:37 16° 8° (N) 08:19:24 29.354- 29.394
SO-50 28 May 08:05:56 08:10:26 72° 242° (WSW) 08:14:57 436.795
XW-2A 28 May 08:08:24 08:10:54 19° 95° (E) 08:13:22 145.665 - 145.685
XW-2F 28 May 08:11:20 08:14:45 31° 288° (WNW) 08:18:09 145.980 - 146.000
XW-2C 28 May 08:13:50 08:17:10 28° 288° (WNW) 08:20:28 145.795 - 145.815
KAITUO 1B 28 May 08:15:56 08:19:22 33° 287° (WNW) 08:22:46 145.475/437.950
DOVE 4 28 May 08:16:58 08:19:46 18° 291° (WNW) 08:22:39 437.250
SEEDS 28 May 08:39:14 08:43:08 37° 98° (E) 08:46:59 437.485
HO-68 28 May 08:40:35 08:47:43 61° 102° (ESE) 08:54:47 435.675
CUBEBUG 2 28 May 08:48:58 08:53:19 38° 98° (E) 08:57:42 437.445
UWE-3 28 May 08:55:54 08:59:51 27° 96° (E) 09:03:48 435.000/436.395/437.385
CUTE-I 28 May 08:56:13 09:00:20 23° 294° (WNW) 09:04:28 437.470
SRMSAT 28 May 09:09:14 09:12:02 13° 188° (S) 09:14:50 437.500
Oscar 11 28 May 09:21:51 09:24:59 19° 94° (E) 09:28:05 .
M-CUBED/EXP-1 PRIME 28 May 09:28:13 09:32:15 40° 255° (WSW) 09:36:02 437.505
CUTE 1.7 + AOD 2 28 May 09:29:08 09:32:56 33° 288° (WNW) 09:36:44 437.475
TIGRISAT 28 May 09:31:36 09:33:09 12° 64° (ENE) 09:34:42 435.000
NO-84 28 May 09:32:20 09:36:16 31° 322° (NW) 09:40:07 435.350 FM
AAUSAT CUBESAT 2 28 May 09:33:19 09:37:28 77° 101° (ESE) 09:41:34 437.432
PRISM 28 May 09:36:29 09:39:24 19° 68° (ENE) 09:42:20 437.425
XW-2A 28 May 09:40:58 09:43:31 20° 289° (WNW) 09:46:04 145.665 - 145.685
FO-29 28 May 09:46:38 09:50:43 24° 66° (ENE) 09:54:52 435.910
AO-73 28 May 09:49:39 09:54:08 54° 100° (E) 09:58:36 145.935
UNISAT 6 28 May 10:01:28 10:05:07 28° 70° (ENE) 10:08:51 437.425
ZACube-1 28 May 10:04:41 10:09:16 90° 330° (NNW) 10:13:52 437.345
SEEDS 28 May 10:15:55 10:18:29 16° 293° (WNW) 10:21:02 437.485
RS-15 28 May 10:19:42 10:30:36 35° 41° (NE) 10:41:01 29.354- 29.394
CUBEBUG 2 28 May 10:26:21 10:29:37 19° 292° (WNW) 10:32:55 437.445
HO-68 28 May 10:29:21 10:34:52 24° 299° (WNW) 10:40:22 435.675
UWE-3 28 May 10:32:20 10:36:10 26° 290° (WNW) 10:40:01 435.000/436.395/437.385
EO-88 28 May 10:46:39 10:49:58 31° 98° (E) 10:53:16 145.990 - 145.960
Oscar 11 28 May 10:57:17 11:01:08 31° 288° (WNW) 11:04:57 .
TIGRISAT 28 May 11:05:08 11:09:18 54° 260° (W) 11:13:33 435.000
QB50P2 28 May 11:09:43 11:10:21 10° 64° (ENE) 11:10:59 145.880/145.840
DELFI C3 28 May 11:10:33 11:14:29 81° 284° (WNW) 11:18:23 145.870
PRISM 28 May 11:10:50 11:14:27 29° 262° (W) 11:18:06 437.425
LO-87 28 May 11:25:54 11:26:34 10° 93° (E) 11:27:13 145.935 - 145.965
AO-73 28 May 11:27:39 11:29:52 14° 294° (WNW) 11:32:05 145.935
FO-29 28 May 11:30:59 11:35:38 34° 263° (W) 11:40:24 435.910
UNISAT 6 28 May 11:38:35 11:41:49 21° 265° (W) 11:45:06 437.425
EO-79 28 May 11:43:10 11:46:31 24° 70° (ENE) 11:49:52 145.935-145.965
AIST 2D 28 May 11:45:35 11:48:59 49° 75° (ENE) 11:52:25 435.315
YUBILEINY 28 May 12:06:09 12:14:02 35° 73° (ENE) 12:21:52 435.215
EO-88 28 May 12:21:23 12:23:20 14° 292° (WNW) 12:25:17 145.990 - 145.960
NANOSAT C BR1 28 May 12:26:12 12:30:20 71° 77° (ENE) 12:34:32 145.865
RS-15 28 May 12:32:08 12:44:11 74° 246° (WSW) 12:55:35 29.354- 29.394
POLYITAN 1 28 May 12:32:34 12:36:46 86° 261° (W) 12:40:59 437.675
DUCHIFAT 1 28 May 12:35:49 12:39:57 83° 79° (E) 12:44:09 145.980
QB50P2 28 May 12:41:26 12:45:34 60° 259° (W) 12:49:45 145.880/145.840
BUGSAT 1 28 May 12:46:48 12:50:18 29° 71° (ENE) 12:53:47 437.445
LO-87 28 May 12:56:50 13:00:08 36° 286° (WNW) 13:03:26 145.935 - 145.965
ESTCUBE 1 28 May 13:05:34 13:10:04 75° 284° (WNW) 13:14:31 437.505/2401.250
EO-79 28 May 13:18:46 13:22:09 24° 264° (W) 13:25:34 145.935-145.965
SPROUT 28 May 13:31:52 13:36:03 52° 100° (E) 13:40:14 437.525
Gurwin Techsat 1B 28 May 13:33:22 13:37:31 24° 67° (ENE) 13:41:40 435.225
Oscar 19 28 May 13:38:50 13:43:44 44° 72° (ENE) 13:48:39 437.125/150
BEESAT 3 28 May 13:39:22 13:41:51 16° 48° (NE) 13:44:20 437.485
AO-85 28 May 13:43:18 13:47:17 51° 58° (ENE) 13:51:29 145.980
VELOX 1 28 May 13:52:39 13:57:03 88° 103° (ESE) 14:01:26 145.980
50 SAT 28 May 13:55:42 13:59:00 46° 100° (E) 14:02:15 437.505
YUBILEINY 28 May 14:02:38 14:10:56 47° 271° (W) 14:19:12 435.215
UKube-1 28 May 14:10:12 14:13:57 29° 97° (E) 14:17:42 .
AO-7 28 May 14:12:45 14:17:38 17° 53° (NE) 14:22:32 .
DX 1 28 May 14:21:39 14:25:57 62° 101° (E) 14:30:13 434.975-435.025
BUGSAT 1 28 May 14:23:00 14:25:39 17° 265° (W) 14:28:21 437.445
O/OREOS (USA 219) 28 May 14:23:07 14:27:39 80° 69° (ENE) 14:32:07 437.305
NO-84 28 May 14:32:42 14:33:54 11° 24° (NNE) 14:35:02 435.350 FM
ITAMSAT 1 28 May 14:47:02 14:50:04 16° 63° (ENE) 14:53:06 435.822/435.867
RS-15 28 May 14:49:12 14:54:17 14° 265° (W) 14:59:17 29.354- 29.394
BEESAT 2 28 May 15:00:19 15:04:09 39° 56° (NE) 15:07:55 435.950
SPROUT 28 May 15:09:44 15:11:28 12° 295° (WNW) 15:13:12 437.525
Gurwin Techsat 1B 28 May 15:12:16 15:17:11 39° 262° (W) 15:22:09 435.225
BEESAT 3 28 May 15:15:50 15:19:40 44° 245° (WSW) 15:23:24 437.485
Oscar 19 28 May 15:19:32 15:23:12 19° 266° (W) 15:26:54 437.125/150
AO-85 28 May 15:25:33 15:27:17 12° 250° (WSW) 15:29:03 145.980
MOZHAYETS 4 28 May 15:33:19 15:33:56 10° 90° (E) 15:34:33
ITUPSAT 1 28 May 15:34:50 15:38:29 21° 95° (E) 15:42:06 437.325
UKube-1 28 May 15:46:33 15:49:46 21° 292° (WNW) 15:52:59 .
DX 1 28 May 16:00:30 16:01:34 11° 296° (WNW) 16:02:38 434.975-435.025
AO-7 28 May 16:00:53 16:09:10 83° 71° (ENE) 16:17:31 .
BEESAT 28 May 16:06:10 16:10:47 47° 100° (E) 16:15:24 436.000
NO-84 28 May 16:08:32 16:12:14 61° 44° (NE) 16:15:36 435.350 FM
ITAMSAT 1 28 May 16:23:56 16:29:00 58° 259° (W) 16:34:06 435.822/435.867
BEESAT 2 28 May 16:39:10 16:41:32 15° 251° (WSW) 16:43:55 435.950
MOZHAYETS 4 28 May 17:06:51 17:11:29 65° 285° (WNW) 17:16:03
ITUPSAT 1 28 May 17:11:58 17:16:21 35° 289° (WNW) 17:20:41 437.325
DOVE 4 28 May 17:41:43 17:45:31 26° 71° (ENE) 17:49:08 437.250
KKS-1 28 May 17:44:21 17:48:33 40° 99° (E) 17:52:44 437.445
BEESAT 28 May 17:45:08 17:48:10 17° 295° (WNW) 17:51:09 436.000
AO-7 28 May 17:57:36 18:02:42 18° 267° (W) 18:07:52 .
CUBESAT XI-V 28 May 17:58:36 18:03:15 77° 101° (ESE) 18:07:51 437.345
LilacSat-2 28 May 17:59:25 18:02:13 20° 70° (ENE) 18:05:03 437.200
STARS 28 May 18:09:12 18:13:09 31° 98° (E) 18:17:03 437.465
XW-2D 28 May 18:30:02 18:33:40 46° 75° (ENE) 18:37:22 145.860 - 145.880
CUTE-I 28 May 18:34:49 18:39:56 52° 72° (ENE) 18:45:04 437.470
XW-2B 28 May 18:37:57 18:41:41 57° 75° (ENE) 18:45:27 145.730 - 145.750
NUDT-PHONESAT 28 May 18:41:06 18:44:39 46° 75° (ENE) 18:48:16 437.300
XW-2F 28 May 18:48:50 18:52:38 79° 76° (ENE) 18:56:27 145.980 - 146.000
XW-2C 28 May 18:51:39 18:55:26 90° 236° (WSW) 18:59:17 145.795 - 145.815
KAITUO 1B 28 May 18:52:36 18:56:21 70° 76° (ENE) 19:00:08 145.475/437.950
PCSat 28 May 18:53:25 18:58:30 43° 111° (ESE) 19:03:37 145.827
HO-68 28 May 19:06:44 19:13:03 35° 65° (ENE) 19:19:24 435.675
Tancredo 1 28 May 19:17:04 19:19:52 33° 133° (SE) 19:22:42 437.200
DOVE 4 28 May 19:19:21 19:23:07 24° 264° (W) 19:26:43 437.250
KKS-1 28 May 19:21:58 19:24:45 16° 294° (WNW) 19:27:31 437.445
SEEDS 28 May 19:28:54 19:31:56 19° 69° (ENE) 19:34:59 437.485
LilacSat-2 28 May 19:33:11 19:36:20 24° 264° (W) 19:39:31 437.200
CUBEBUG 2 28 May 19:45:23 19:48:33 21° 69° (ENE) 19:51:46 437.445
STARS 28 May 19:46:01 19:49:15 20° 292° (WNW) 19:52:29 437.465
UWE-3 28 May 19:51:41 19:54:06 15° 66° (ENE) 19:56:32 435.000/436.395/437.385
XW-2A 28 May 20:08:39 20:11:59 85° 78° (ENE) 20:15:23 145.665 - 145.685
ISS 28 May 20:10:19 20:13:36 86° 133° (SE) 20:16:54 437.550
Oscar 11 28 May 20:15:52 20:17:19 12° 65° (ENE) 20:18:46 .
STRAND 1 28 May 20:15:59 20:20:41 35° 98° (E) 20:25:22 437.568
CUTE-I 28 May 20:16:52 20:20:14 17° 267° (W) 20:23:37 437.470
CUTE 1.7 + AOD 2 28 May 20:18:17 20:22:32 67° 259° (W) 20:26:49 437.475
AAUSAT CUBESAT 2 28 May 20:20:43 20:24:30 34° 73° (ENE) 20:28:18 437.432
PCSat 28 May 20:37:39 20:42:03 25° 308° (NW) 20:46:28 145.827
AO-73 28 May 20:42:51 20:46:29 29° 71° (ENE) 20:50:12 145.935
Tancredo 1 28 May 20:53:16 20:55:40 21° 329° (NNW) 20:58:05 437.200
HO-68 28 May 20:53:55 21:00:35 41° 261° (W) 21:07:19 435.675
ZACube-1 28 May 20:57:47 21:01:50 48° 74° (ENE) 21:06:00 437.345
SEEDS 28 May 21:03:36 21:07:22 31° 263° (W) 21:11:10 437.485
M-CUBED/EXP-1 PRIME 28 May 21:11:24 21:11:58 10° 98° (E) 21:12:33 437.505
CUBEBUG 2 28 May 21:21:31 21:25:00 26° 264° (W) 21:28:35 437.445
EO-88 28 May 21:25:01 21:25:10 10° 66° (ENE) 21:25:18 145.990 - 145.960
UWE-3 28 May 21:26:15 21:30:10 39° 262° (W) 21:34:12 435.000/436.395/437.385
ISS 28 May 21:48:38 21:50:29 14° 335° (NNW) 21:52:21 437.550
Oscar 11 28 May 21:48:39 21:52:54 57° 260° (W) 21:57:13 .
DELFI C3 28 May 21:53:11 21:56:52 37° 73° (ENE) 22:00:34 145.870
STRAND 1 28 May 21:55:31 21:59:39 25° 293° (WNW) 22:03:46 437.568
AAUSAT CUBESAT 2 28 May 21:57:23 22:00:02 16° 267° (W) 22:02:40 437.432
SO-50 28 May 22:17:21 22:21:55 67° 118° (ESE) 22:26:26 436.795
AO-73 28 May 22:19:35 22:22:43 20° 266° (W) 22:25:54 145.935
ZACube-1 28 May 22:36:50 22:38:24 12° 269° (W) 22:39:59 437.345
FO-29 28 May 22:40:05 22:46:13 35° 98° (E) 22:52:52 435.910
M-CUBED/EXP-1 PRIME 28 May 22:43:39 22:46:33 30° 292° (WNW) 22:49:27 437.505
PRISM 28 May 22:54:04 22:57:55 40° 99° (E) 23:01:44 437.425
EO-88 28 May 22:54:52 22:58:23 44° 261° (W) 23:01:55 145.990 - 145.960
TIGRISAT 28 May 22:58:45 23:03:04 37° 98° (E) 23:07:23 435.000
DELFI C3 28 May 23:29:45 23:31:45 13° 267° (W) 23:33:46 145.870
LO-87 28 May 23:29:55 23:33:22 50° 75° (ENE) 23:36:48 145.935 - 145.965
UNISAT 6 28 May 23:30:57 23:35:37 88° 280° (W) 23:40:18 437.425
SO-50 29 May 00:00:17 00:02:48 14° 314° (NW) 00:05:19 436.795
ESTCUBE 1 29 May 00:02:03 00:06:33 73° 76° (ENE) 00:11:06 437.505/2401.250
NANOSAT C BR1 29 May 00:14:27 00:16:39 14° 93° (E) 00:18:50 145.865
POLYITAN 1 29 May 00:20:41 00:23:43 19° 94° (E) 00:26:43 437.675
SPROUT 29 May 00:22:53 00:26:29 28° 71° (ENE) 00:30:06 437.525
DUCHIFAT 1 29 May 00:23:25 00:26:00 16° 94° (E) 00:28:35 145.980
FO-29 29 May 00:25:02 00:31:10 40° 290° (WNW) 00:37:55 435.910
50 SAT 29 May 00:27:14 00:28:39 12° 68° (ENE) 00:30:03 437.505
QB50P2 29 May 00:29:03 00:32:38 25° 96° (E) 00:36:10 145.880/145.840
PRISM 29 May 00:30:44 00:32:48 14° 294° (WNW) 00:34:52 437.425
TIGRISAT 29 May 00:36:06 00:39:27 20° 292° (WNW) 00:42:48 435.000
RS-15 29 May 00:42:28 00:50:58 23° 100° (E) 00:59:34 29.354- 29.394
AIST 2D 29 May 00:45:58 00:49:33 88° 272° (W) 00:53:05 435.315
VELOX 1 29 May 00:47:01 00:51:20 55° 74° (ENE) 00:55:39 145.980
UKube-1 29 May 01:02:45 01:05:46 19° 67° (ENE) 01:08:47 .
YUBILEINY 29 May 01:03:45 01:11:45 43° 88° (E) 01:19:49 435.215
EO-79 29 May 01:04:45 01:08:59 63° 101° (E) 01:13:12 145.935-145.965
DX 1 29 May 01:14:34 01:18:34 38° 72° (ENE) 01:22:36 434.975-435.025
Tancredo 1 29 May 01:44:22 01:46:27 17° 29° (NNE) 01:48:32 437.200
NANOSAT C BR1 29 May 01:48:30 01:52:31 42° 287° (WNW) 01:56:32 145.865
Oscar 19 29 May 01:53:52 01:57:26 19° 94° (E) 02:00:58 437.125/150
Gurwin Techsat 1B 29 May 01:54:43 01:55:23 10° 90° (E) 01:56:03 435.225
POLYITAN 1 29 May 01:55:42 01:59:31 32° 289° (WNW) 02:03:19 437.675
DUCHIFAT 1 29 May 01:57:51 02:01:46 37° 288° (WNW) 02:05:40 145.980
50 SAT 29 May 01:58:05 02:01:11 31° 262° (W) 02:04:18 437.505
SPROUT 29 May 01:59:11 02:02:21 20° 265° (W) 02:05:32 437.525
QB50P2 29 May 02:04:52 02:08:16 23° 291° (WNW) 02:11:40 145.880/145.840
BUGSAT 1 29 May 02:05:14 02:09:24 76° 102° (ESE) 02:13:36 437.445
VELOX 1 29 May 02:26:44 02:28:04 11° 268° (W) 02:29:24 145.980
UKube-1 29 May 02:37:38 02:41:31 33° 262° (W) 02:45:26 .
ITUPSAT 1 29 May 02:39:30 02:42:52 19° 66° (ENE) 02:46:14 437.325
ISS 29 May 02:40:28 02:43:30 33° 35° (NE) 02:46:30 437.550
EO-79 29 May 02:43:36 02:44:10 10° 296° (WNW) 02:44:45 145.935-145.965
JUGNU 29 May 02:46:59 02:49:17 12° 170° (S) 02:51:36 437.505
RS-15 29 May 02:49:45 03:01:50 86° 299° (WNW) 03:14:19 29.354- 29.394
DX 1 29 May 02:52:09 02:54:51 16° 266° (W) 02:57:34 434.975-435.025
O/OREOS (USA 219) 29 May 02:56:17 02:58:15 13° 98° (E) 03:00:13 437.305
YUBILEINY 29 May 03:00:39 03:08:32 37° 286° (WNW) 03:16:31 435.215
BEESAT 29 May 03:09:58 03:14:24 40° 72° (ENE) 03:18:52 436.000
Tancredo 1 29 May 03:19:25 03:22:23 48° 225° (SW) 03:25:20 437.200
Gurwin Techsat 1B 29 May 03:30:32 03:35:52 80° 285° (WNW) 03:41:11 435.225
Oscar 19 29 May 03:32:02 03:36:56 45° 288° (WNW) 03:41:46 437.125/150
PCSat 29 May 03:44:11 03:48:23 22° 51° (NE) 03:52:34 145.827
AO-85 29 May 03:55:47 03:59:29 29° 114° (ESE) 04:03:02 145.980
MOZHAYETS 4 29 May 04:05:41 04:10:16 87° 81° (E) 04:14:56
AO-7 29 May 04:05:58 04:13:15 32° 98° (E) 04:20:30 .
ITUPSAT 1 29 May 04:15:55 04:20:22 39° 261° (W) 04:24:52 437.325
ISS 29 May 04:17:19 04:19:49 20° 230° (SW) 04:22:19 437.550
O/OREOS (USA 219) 29 May 04:32:39 04:37:07 52° 293° (WNW) 04:41:38 437.305
JUGNU 29 May 04:34:07 04:37:29 15° 180° (S) 04:40:52 437.505
ITAMSAT 1 29 May 04:39:09 04:44:19 61° 102° (ESE) 04:49:28 435.822/435.867
KKS-1 29 May 04:40:06 04:43:50 28° 70° (ENE) 04:47:36 437.445
BEESAT 29 May 04:49:06 04:52:18 18° 266° (W) 04:55:32 436.000
BEESAT 2 29 May 04:51:19 04:52:53 12° 108° (ESE) 04:54:27 435.950
CUBESAT XI-V 29 May 04:58:56 05:03:31 55° 74° (ENE) 05:08:08 437.345
BEESAT 3 29 May 05:02:39 05:06:28 52° 116° (ESE) 05:10:22 437.485
STARS 29 May 05:03:48 05:07:04 21° 68° (ENE) 05:10:20 437.465
RS-15 29 May 05:06:14 05:16:20 29° 324° (NW) 05:26:35 29.354- 29.394
SRMSAT 29 May 05:20:02 05:22:18 12° 169° (S) 05:24:33 437.500
PCSat 29 May 05:26:48 05:32:02 49° 249° (WSW) 05:37:13 145.827
AO-85 29 May 05:36:37 05:39:51 22° 308° (NW) 05:42:59 145.980
